FW5909 Weather Reports


Display with metric or nautical units.
time (UTC)temp
F
wind
direction
speed
MPH
gust
MPH
rain 1hr
in
rain 24hr
in
rain mn
in
humidity
%
barometer
mb
20260505005048 61 0 0.0 3.0 0.00 0.00 0.00 50 1006.6
20260505004549 61 226 0.0 3.0 0.00 0.00 0.00 51 1006.5
20260505004044 61 201 0.0 1.0 0.00 0.00 0.00 52 1006.4
20260505003548 61 0 0.0 1.0 0.00 0.00 0.00 51 1006.4
20260505003053 62 0 0.0 1.0 0.00 0.00 0.00 50 1006.5
20260505002545 62 146 0.0 0.0 0.00 0.00 0.00 48 1006.4
20260505002044 62 0 0.0 0.0 0.00 0.00 0.00 48 1006.3
20260505001548 63 0 0.0 0.0 0.00 0.00 0.00 47 1006.3
20260505001044 64 0 0.0 1.0 0.00 0.00 0.00 45 1006.0
20260505000546 65 150 0.0 1.0 0.00 0.00 0.00 44 1005.9
20260505000105 66 0 0.0 2.0 0.00 0.00 0.00 42 1005.9
20260504235548 66 192 0.0 3.0 0.00 0.00 0.00 42 1005.9
20260504235048 67 221 1.0 6.0 0.00 0.00 0.00 41 1005.8
20260504234551 67 243 1.0 6.0 0.00 0.00 0.00 41 1005.7
20260504234044 67 231 1.0 6.0 0.00 0.00 0.00 40 1005.6
20260504233547 68 236 1.0 6.0 0.00 0.00 0.00 40 1005.7
20260504233058 68 258 3.0 8.0 0.00 0.00 0.00 39 1005.6
20260504232549 68 234 3.0 12.0 0.00 0.00 0.00 39 1005.4
20260504232048 69 263 4.0 12.0 0.00 0.00 0.00 38 1005.4
20260504231552 69 271 4.0 12.0 0.00 0.00 0.00 38 1005.2
20260504231046 70 240 6.0 11.0 0.00 0.00 0.00 38 1005.1
20260504230551 70 240 4.0 10.0 0.00 0.00 0.00 38 1004.9
20260504225549 70 276 4.0 10.0 0.00 0.00 0.00 37 1005.0
20260504225048 70 257 5.0 16.0 0.00 0.00 0.00 38 1004.8
20260504224553 70 243 5.0 16.0 0.00 0.00 0.00 37 1004.8
20260504224049 70 280 7.0 16.0 0.00 0.00 0.00 37 1004.9
20260504223549 70 239 3.0 12.0 0.00 0.00 0.00 38 1004.8
20260504223100 71 238 3.0 14.0 0.00 0.00 0.00 37 1004.8
20260504222549 71 268 8.0 14.0 0.00 0.00 0.00 37 1004.7
20260504222046 71 251 8.0 16.0 0.00 0.00 0.00 36 1004.6
20260504221550 71 243 9.0 16.0 0.00 0.00 0.00 37 1004.6
20260504221048 71 280 8.0 17.0 0.00 0.00 0.00 36 1004.5
20260504220545 71 266 7.0 17.0 0.00 0.00 0.00 36 1004.6
20260504220053 71 301 8.0 15.0 0.00 0.00 0.00 38 1004.5
20260504215545 71 288 7.0 15.0 0.00 0.00 0.00 36 1004.7
20260504215046 71 278 7.0 15.0 0.00 0.00 0.00 36 1004.7
20260504214607 71 269 6.0 19.0 0.00 0.00 0.00 36 1004.6
20260504214045 71 270 8.0 22.0 0.00 0.00 0.00 37 1004.6
20260504213549 71 293 12.0 22.0 0.00 0.00 0.00 36 1004.7
20260504213118 71 271 14.0 22.0 0.00 0.00 0.00 34 1004.6
20260504212549 71 238 8.0 15.0 0.00 0.00 0.00 39 1004.6
20260504212050 71 268 8.0 16.0 0.00 0.00 0.00 39 1004.5
20260504211555 71 231 9.0 18.0 0.00 0.00 0.00 37 1004.7
20260504211050 71 259 7.0 20.0 0.00 0.00 0.00 38 1004.7
20260504210550 71 243 9.0 20.0 0.00 0.00 0.00 37 1004.4
20260504210049 71 271 11.0 23.0 0.00 0.00 0.00 38 1004.6
20260504205548 70 243 13.0 27.0 0.00 0.00 0.00 37 1004.5
20260504205049 70 258 16.0 27.0 0.00 0.00 0.00 36 1004.4
20260504204603 70 252 11.0 21.0 0.00 0.00 0.00 37 1004.5
20260504204049 70 275 8.0 15.0 0.00 0.00 0.00 40 1004.5
20260504203548 69 281 7.0 19.0 0.00 0.00 0.00 38 1004.5
20260504203105 69 292 11.0 19.0 0.00 0.00 0.00 39 1004.6
20260504202547 70 229 10.0 21.0 0.00 0.00 0.00 38 1004.5
20260504202046 70 269 10.0 21.0 0.00 0.00 0.00 38 1004.5
20260504201608 69 283 8.0 26.0 0.00 0.00 0.00 38 1004.6
20260504201049 70 248 13.0 26.0 0.00 0.00 0.00 37 1004.7
20260504200548 70 261 13.0 26.0 0.00 0.00 0.00 37 1004.6
20260504200053 70 230 10.0 25.0 0.00 0.00 0.00 38 1004.5
20260504195547 70 302 12.0 25.0 0.00 0.00 0.00 39 1004.4
20260504195048 70 253 13.0 25.0 0.00 0.00 0.00 39 1004.6
20260504194554 70 279 11.0 25.0 0.00 0.00 0.00 39 1004.6
20260504194049 70 257 11.0 17.0 0.00 0.00 0.00 40 1004.6
20260504193550 70 273 8.0 16.0 0.00 0.00 0.00 39 1004.5
20260504193051 69 244 6.0 19.0 0.00 0.00 0.00 43 1004.6
20260504192547 69 336 7.0 19.0 0.00 0.00 0.00 38 1004.6
20260504192051 69 256 10.0 21.0 0.00 0.00 0.00 38 1004.9
20260504191559 68 292 9.0 21.0 0.00 0.00 0.00 39 1004.9
20260504191045 68 243 12.0 20.0 0.00 0.00 0.00 39 1005.0
20260504190549 67 238 10.0 18.0 0.00 0.00 0.00 39 1005.0
20260504190112 67 271 5.0 24.0 0.00 0.00 0.00 40 1005.1
20260504185551 67 303 11.0 24.0 0.00 0.00 0.00 39 1004.9
20260504185049 67 288 8.0 16.0 0.00 0.00 0.00 40 1005.0
20260504184603 67 244 9.0 23.0 0.00 0.00 0.00 39 1005.1
20260504184049 67 268 11.0 27.0 0.00 0.00 0.00 40 1005.1
20260504183549 68 257 15.0 27.0 0.00 0.00 0.00 39 1004.9
20260504183052 68 257 9.0 28.0 0.00 0.00 0.00 38 1005.2
20260504182548 68 231 12.0 28.0 0.00 0.00 0.00 40 1005.0
20260504182050 69 244 15.0 28.0 0.00 0.00 0.00 37 1004.9
20260504181556 69 246 16.0 28.0 0.00 0.00 0.00 37 1004.8
20260504181048 69 233 12.0 22.0 0.00 0.00 0.00 38 1004.9
20260504180550 69 318 12.0 23.0 0.00 0.00 0.00 40 1005.0
20260504180054 68 250 10.0 23.0 0.00 0.00 0.00 37 1005.0
20260504175545 68 250 12.0 21.0 0.00 0.00 0.00 37 1005.1
20260504175045 67 258 11.0 29.0 0.00 0.00 0.00 39 1005.0
20260504174553 67 257 15.0 29.0 0.00 0.00 0.00 37 1005.1
20260504174050 67 264 18.0 29.0 0.00 0.00 0.00 38 1005.1
20260504173549 68 179 20.0 28.0 0.00 0.00 0.00 37 1005.2
20260504173049 68 263 16.0 24.0 0.00 0.00 0.00 36 1005.0
20260504172548 68 242 14.0 24.0 0.00 0.00 0.00 37 1004.9
20260504172048 68 252 10.0 27.0 0.00 0.00 0.00 37 1004.9
20260504171557 67 263 14.0 27.0 0.00 0.00 0.00 41 1004.9
20260504171049 67 240 14.0 26.0 0.00 0.00 0.00 37 1004.9
20260504170549 67 255 16.0 31.0 0.00 0.00 0.00 37 1005.0
20260504160103 65 257 19.0 33.0 0.00 0.00 0.00 40 1005.5
20260504151045 63 240 11.0 22.0 0.00 0.00 0.00 48 1006.2
20260504150550 63 245 9.0 16.0 0.00 0.00 0.00 48 1006.0
20260504141048 58 254 6.0 17.0 0.00 0.00 0.00 54 1007.2
20260504140549 58 274 11.0 22.0 0.00 0.00 0.00 53 1007.4
20260504140106 58 271 9.0 22.0 0.00 0.00 0.00 55 1007.5
20260504130548 54 265 7.0 13.0 0.00 0.00 0.00 60 1007.9
20260504120108 49 255 6.0 11.0 0.00 0.00 0.00 67 1008.9
20260504110549 45 0 0.0 6.0 0.00 0.00 0.00 70 1009.0
20260504100549 40 0 0.0 0.0 0.00 0.00 0.00 76 1008.8
20260504081550 38 248 0.0 3.0 0.00 0.00 0.00 80 1008.6
20260504081048 38 242 1.0 3.0 0.00 0.00 0.00 82 1008.7
20260504080547 37 215 1.0 2.0 0.00 0.00 0.00 85 1008.7
20260504050547 33 0 0.0 0.0 0.00 0.00 0.00 87 1008.6
20260504045548 33 0 0.0 0.0 0.00 0.00 0.00 87 1008.7
20260504045049 33 0 0.0 0.0 0.00 0.00 0.00 87 1008.6
20260504044555 33 0 0.0 0.0 0.00 0.00 0.00 88 1008.6
20260504044046 33 0 0.0 0.0 0.00 0.00 0.00 88 1008.6
20260504043546 33 0 0.0 0.0 0.00 0.00 0.00 88 1008.7
20260504043054 33 0 0.0 0.0 0.00 0.00 0.00 89 1008.8
20260504042546 33 0 0.0 0.0 0.00 0.00 0.00 88 1008.5
20260504042047 33 0 0.0 0.0 0.00 0.00 0.00 88 1008.6
20260504041549 33 0 0.0 0.0 0.00 0.00 0.00 87 1008.5
20260504041048 34 0 0.0 0.0 0.00 0.00 0.00 87 1008.6
20260504040548 34 0 0.0 0.0 0.00 0.00 0.00 87 1008.6
20260504040053 34 0 0.0 0.0 0.00 0.00 0.00 87 1008.5
20260504035545 34 0 0.0 0.0 0.00 0.00 0.00 86 1008.4
20260504035047 34 0 0.0 0.0 0.00 0.00 0.00 86 1008.4
20260504034549 34 0 0.0 0.0 0.00 0.00 0.00 85 1008.3
20260504034050 35 0 0.0 0.0 0.00 0.00 0.00 84 1008.2
20260504033547 35 0 0.0 0.0 0.00 0.00 0.00 84 1008.1
20260504033104 35 0 0.0 0.0 0.00 0.00 0.00 84 1008.2
20260504032547 35 0 0.0 0.0 0.00 0.00 0.00 83 1008.0
20260504032049 36 0 0.0 0.0 0.00 0.00 0.00 82 1008.0
20260504031559 36 0 0.0 0.0 0.00 0.00 0.00 80 1008.0
20260504031050 36 0 0.0 0.0 0.00 0.00 0.00 83 1008.0
20260504030545 36 0 0.0 0.0 0.00 0.00 0.00 80 1008.0
20260504030052 37 0 0.0 1.0 0.00 0.00 0.00 79 1007.9
20260504025548 37 0 0.0 1.0 0.00 0.04 0.00 80 1007.9
20260504025046 37 0 0.0 0.0 0.00 0.04 0.00 80 1007.9
20260504024558 37 0 0.0 0.0 0.00 0.04 0.00 81 1008.0
20260504024048 37 0 0.0 0.0 0.00 0.04 0.00 81 1007.9
20260504023551 37 0 0.0 0.0 0.00 0.04 0.00 79 1007.9
20260504023052 37 0 0.0 0.0 0.00 0.04 0.00 78 1008.0
20260504022547 38 0 0.0 0.0 0.00 0.04 0.00 78 1008.0
20260504022047 37 0 0.0 0.0 0.00 0.04 0.00 79 1008.1
20260504021554 38 0 0.0 0.0 0.00 0.04 0.00 78 1007.9
20260504021047 38 0 0.0 0.0 0.00 0.04 0.00 77 1007.9
20260504020547 38 0 0.0 0.0 0.00 0.04 0.00 76 1007.9
20260504020054 39 0 0.0 0.0 0.00 0.04 0.00 75 1007.9
20260504015547 39 0 0.0 0.0 0.00 0.04 0.00 74 1007.9
20260504015047 39 0 0.0 0.0 0.00 0.04 0.00 74 1008.0
20260504014550 40 0 0.0 0.0 0.00 0.04 0.00 74 1008.1
20260504014046 40 0 0.0 0.0 0.00 0.04 0.00 72 1008.0
20260504013545 40 0 0.0 0.0 0.00 0.04 0.00 72 1008.0
20260504013105 40 0 0.0 0.0 0.00 0.04 0.00 71 1008.1
20260504012546 41 0 0.0 0.0 0.00 0.04 0.00 70 1008.1
20260504012048 41 0 0.0 0.0 0.00 0.04 0.00 67 1007.9
20260504011551 42 0 0.0 0.0 0.00 0.04 0.00 65 1007.9
20260504011047 43 0 0.0 0.0 0.00 0.04 0.00 64 1007.8
20260504010545 43 0 0.0 0.0 0.00 0.04 0.00 63 1007.8
20260504010052 44 0 0.0 0.0 0.00 0.04 0.00 62 1007.7
20260504005547 44 0 0.0 0.0 0.00 0.05 0.00 60 1007.5